TimeIST,TemperatureF,Dew PointF,Humidity,Sea Level PressureIn,VisibilityMPH,Wind Direction,Wind SpeedMPH,Gust SpeedMPH,PrecipitationIn,Events,Conditions,WindDirDegrees,DateUTC
12:50 AM,59.0,53.6,82,29.92,6.2,SE,3.5,-,N/A,,Scattered Clouds,130,2012-12-05 22:50:00
1:50 AM,59.0,53.6,82,29.92,6.2,ESE,4.6,-,N/A,,Scattered Clouds,110,2012-12-05 23:50:00
2:00 AM,60,53,72,29.93,6,ESE,4.6,,,,Partly Cloudy,110,2012-12-06 00:00:00
2:47 AM,59.0,53.6,82,29.92,6.2,South,11.5,-,N/A,Rain,Rain,170,2012-12-06 00:47:00
2:50 AM,59.0,53.6,82,29.92,6.2,South,11.5,-,N/A,Rain,Rain,170,2012-12-06 00:50:00
3:20 AM,59.0,55.4,88,29.92,3.1,South,13.8,-,N/A,Rain,Heavy Rain,170,2012-12-06 01:20:00
3:48 AM,59.0,55.4,88,29.92,5.6,South,8.1,-,N/A,Rain,Light Rain,180,2012-12-06 01:48:00
3:50 AM,59.0,55.4,88,29.92,5.6,South,8.1,-,N/A,Rain,Light Rain,180,2012-12-06 01:50:00
4:29 AM,59.0,55.4,88,29.92,4.3,South,8.1,-,N/A,Rain,Rain,180,2012-12-06 02:29:00
4:30 AM,59.0,55.4,88,29.92,4.3,SE,11.5,-,N/A,Rain,Rain,130,2012-12-06 02:30:00
4:41 AM,59.0,55.4,88,29.92,5.6,ESE,10.4,-,N/A,Rain,Light Rain,120,2012-12-06 02:41:00
4:50 AM,59.0,55.4,88,29.92,5.6,ESE,10.4,-,N/A,,Mostly Cloudy,120,2012-12-06 02:50:00
5:50 AM,60.8,55.4,82,29.92,6.2,South,10.4,-,N/A,,Mostly Cloudy,170,2012-12-06 03:50:00
6:50 AM,59.0,51.8,77,29.95,6.2,South,15.0,-,N/A,,Scattered Clouds,170,2012-12-06 04:50:00
7:50 AM,60.8,51.8,72,29.98,6.2,South,15.0,-,N/A,,Mostly Cloudy,170,2012-12-06 05:50:00
8:00 AM,60,51,64,29.99,6,South,15.0,,,,Partly Cloudy,170,2012-12-06 06:00:00
8:50 AM,60.8,50.0,68,30.01,6.2,South,13.8,-,N/A,,Mostly Cloudy,170,2012-12-06 06:50:00
9:50 AM,64.4,50.0,59,30.01,6.2,South,15.0,-,N/A,,Scattered Clouds,190,2012-12-06 07:50:00
10:50 AM,66.2,50.0,56,29.98,6.2,SSW,17.3,-,N/A,,Scattered Clouds,200,2012-12-06 08:50:00
11:50 AM,68.0,53.6,60,29.98,6.2,SW,17.3,-,N/A,,Scattered Clouds,220,2012-12-06 09:50:00
12:50 PM,68.0,53.6,60,29.95,6.2,SW,16.1,27.6,N/A,,Scattered Clouds,220,2012-12-06 10:50:00
1:50 PM,68.0,51.8,56,29.95,6.2,SSW,15.0,-,N/A,,Mostly Cloudy,210,2012-12-06 11:50:00
2:00 PM,68,52,46,29.96,6,SSW,15.0,,,,Mostly Cloudy,210,2012-12-06 12:00:00
2:50 PM,68.0,51.8,56,29.95,6.2,SSW,15.0,-,N/A,,Mostly Cloudy,210,2012-12-06 12:50:00
3:50 PM,68.0,53.6,60,29.95,6.2,SSW,13.8,-,N/A,,Mostly Cloudy,200,2012-12-06 13:50:00
4:50 PM,66.2,53.6,64,29.98,6.2,South,8.1,-,N/A,,Mostly Cloudy,180,2012-12-06 14:50:00
5:50 PM,64.4,51.8,64,29.98,6.2,South,6.9,-,N/A,,Scattered Clouds,170,2012-12-06 15:50:00
6:50 PM,64.4,51.8,64,29.98,6.2,SE,8.1,-,N/A,,Mostly Cloudy,140,2012-12-06 16:50:00
7:50 PM,62.6,50.0,63,29.98,6.2,SE,9.2,-,N/A,,Scattered Clouds,140,2012-12-06 17:50:00
8:00 PM,63,51,55,30.00,6,SE,9.2,,,,Scattered Clouds,140,2012-12-06 18:00:00
8:50 PM,62.6,50.0,63,29.98,6.2,SE,9.2,-,N/A,,Partly Cloudy,140,2012-12-06 18:50:00
9:50 PM,60.8,50.0,68,29.98,-9999.0,SSE,9.2,-,N/A,,Clear,150,2012-12-06 19:50:00
10:50 PM,60.8,48.2,63,29.98,-9999.0,SSE,8.1,19.6,N/A,,Clear,150,2012-12-06 20:50:00
11:50 PM,60.8,48.2,63,29.98,-9999.0,SSE,6.9,-,N/A,,Clear,150,2012-12-06 21:50:00